This is the latest recevied weather packets stored in our database for station/object N5XJB. If no packets are shown the sender has not sent any weather packets the latest 10 day(s).
| Time | Temp. | Humidity | Pressure | Rain* | Wind** | Luminosity | Snow |
|---|---|---|---|---|---|---|---|
| 1777855742 | 23.33° C | 48% | 1018.6 hPa | 0 mm | - | 7 W/m² | - |
| 1777855440 | 23.33° C | 48% | 1018.6 hPa | 0 mm | - | 11 W/m² | - |
| 1777855136 | 23.33° C | 48% | 1018.6 hPa | 0 mm | - | 12 W/m² | - |
| 1777854833 | 23.89° C | 47% | 1018.6 hPa | 0 mm | - | 10 W/m² | - |
| 1777854529 | 23.89° C | 47% | 1018.6 hPa | 0 mm | - | 11 W/m² | - |
| 1777854226 | 23.89° C | 46% | 1018.9 hPa | 0 mm | - | 13 W/m² | - |
| 1777853924 | 24.44° C | 45% | 1018.6 hPa | 0 mm | - | 17 W/m² | - |
| 1777853621 | 25° C | 44% | 1018.6 hPa | 0 mm | - | 27 W/m² | - |
| 1777853317 | 25° C | 43% | 1018.6 hPa | 0 mm | - | 36 W/m² | - |
| 1777853015 | 25° C | 43% | 1018.9 hPa | 0 mm | - | 36 W/m² | - |
| 1777852712 | 25.56° C | 42% | 1018.6 hPa | 0 mm | - | 37 W/m² | - |
| 1777852410 | 25.56° C | 39% | 1018.9 hPa | 0 mm | - | 39 W/m² | - |
| 1777852107 | 25.56° C | 38% | 1018.9 hPa | 0 mm | - | 42 W/m² | - |
| 1777851805 | 25.56° C | 39% | 1018.6 hPa | 0 mm | - | 53 W/m² | - |
| 1777851502 | 25.56° C | 38% | 1018.6 hPa | 0 mm | - | 59 W/m² | - |
| 1777851198 | 25.56° C | 38% | 1018.6 hPa | 0 mm | - | 49 W/m² | - |
| 1777850895 | 25.56° C | 36% | 1018.6 hPa | 0 mm | - | 56 W/m² | - |
| 1777850592 | 25.56° C | 37% | 1018.6 hPa | 0 mm | - | 68 W/m² | - |
| 1777850290 | 26.11° C | 37% | 1018.9 hPa | 0 mm | - | 61 W/m² | - |
| 1777849987 | 26.11° C | 37% | 1018.9 hPa | 0 mm | - | 68 W/m² | - |
| 1777849683 | 26.11° C | 37% | 1018.9 hPa | 0 mm | - | 91 W/m² | - |
| 1777849380 | 26.67° C | 36% | 1018.9 hPa | 0 mm | - | 89 W/m² | - |
| 1777849077 | 27.22° C | 37% | 1018.9 hPa | 0 mm | - | 117 W/m² | - |
| 1777848772 | 26.67° C | 36% | 1018.9 hPa | 0 mm | - | 124 W/m² | - |
| 1777848469 | 27.22° C | 36% | 1019.3 hPa | 0 mm | - | 114 W/m² | - |
* Rain latest hour (hover to see other rain measurements)
** Current wind speed in m/s (hover to see current wind gust speed)